This is the latest recevied weather packets stored in our database for station/object IU2EVW-3. If no packets are shown the sender has not sent any weather packets the latest 1 day(s).
| Time | Temp. | Humidity | Pressure | Rain* | Wind** | Luminosity | Snow |
|---|---|---|---|---|---|---|---|
| 1788563826 | 25° C | 37% | 1016.3 hPa | - | - | - | - |
| 1788562625 | 25° C | 38% | 1016.3 hPa | - | - | - | - |
| 1788561424 | 25° C | 39% | 1016.3 hPa | - | - | - | - |
| 1788560223 | 25° C | 39% | 1016.2 hPa | - | - | - | - |
| 1788559022 | 25.56° C | 39% | 1016.2 hPa | - | - | - | - |
| 1788557820 | 26.11° C | 38% | 1016.2 hPa | - | - | - | - |
| 1788556619 | 26.11° C | 38% | 1016.2 hPa | - | - | - | - |
| 1788555418 | 26.11° C | 38% | 1016.4 hPa | - | - | - | - |
| 1788554217 | 26.67° C | 36% | 1016.5 hPa | - | - | - | - |
| 1788553016 | 27.22° C | 34% | 1016.3 hPa | - | - | - | - |
| 1788552077 | 27.22° C | 33% | 1016.5 hPa | - | - | - | - |
| 1788550875 | 27.22° C | 33% | 1016.4 hPa | - | - | - | - |
| 1788549674 | 27.78° C | 32% | 1016.4 hPa | - | - | - | - |
| 1788548473 | 28.33° C | 33% | 1016.2 hPa | - | - | - | - |
| 1788547272 | 28.33° C | 39% | 1016 hPa | - | - | - | - |
| 1788546071 | 28.89° C | 44% | 1015.8 hPa | - | - | - | - |
| 1788544869 | 29.44° C | 42% | 1015.6 hPa | - | - | - | - |
| 1788543668 | 30° C | 40% | 1015.4 hPa | - | - | - | - |
| 1788542467 | 30.56° C | 39% | 1015.3 hPa | - | - | - | - |
| 1788541265 | 30.56° C | 38% | 1015.4 hPa | - | - | - | - |
| 1788540064 | 31.11° C | 38% | 1015.5 hPa | - | - | - | - |
| 1788538863 | 31.11° C | 37% | 1015.5 hPa | - | - | - | - |
| 1788537661 | 31.11° C | 37% | 1015.5 hPa | - | - | - | - |
* Rain since midnight (hover to see other rain measurements)
** Current wind speed in m/s (hover to see current wind gust speed)